KI5MQY-13 Weather Reports


time (UTC)temp
C
wind
direction
speed
KPH
gust
KPH
rain 1hr
cm
rain 24hr
cm
rain mn
cm
humidity
%
barometer
mb
20260509041924 22 180 24.1 24.1 0.00 0.00 0.00 80 1009.0
20260509034924 22 180 24.1 24.1 0.00 0.00 0.00 79 1009.0
20260509031924 22 180 24.1 24.1 0.00 0.00 0.00 79 1009.0
20260509024924 22 180 24.1 24.1 0.00 0.00 0.00 78 1009.0
20260509014925 22 180 24.1 24.1 0.00 0.00 0.00 76 1008.0
20260509004925 23 180 24.1 24.1 0.00 0.00 0.00 72 1007.0
20260509001924 24 170 22.5 22.5 0.00 0.00 0.00 70 1007.0
20260508234924 24 170 22.5 22.5 0.00 0.00 0.00 69 1007.0
20260508231924 25 170 22.5 22.5 0.00 0.00 0.00 67 1008.0
20260508224924 26 170 22.5 22.5 0.00 0.00 0.00 67 1007.0
20260508221924 26 170 22.5 22.5 0.00 0.00 0.00 65 1008.0
20260508214924 26 170 22.5 22.5 0.00 0.00 0.00 65 1007.0
20260508211924 26 170 22.5 22.5 0.00 0.00 0.00 66 1009.0
20260508204925 25 170 14.5 14.5 0.00 0.00 0.00 64 1009.0
20260508201924 25 170 14.5 14.5 0.00 0.00 0.00 63 1010.0
20260508194924 26 276 9.7 19.3 0.00 0.00 0.00 63 1009.0
20260508184924 25 276 9.7 19.3 0.00 0.00 0.00 61 1011.0
20260508174924 24 276 9.7 19.3 0.00 0.00 0.00 62 1012.0
20260508171924 23 276 9.7 19.3 0.00 0.00 0.00 64 1013.0
20260508164924 22 276 9.7 19.3 0.00 0.00 0.00 66 1013.0
20260508154924 20 110 6.4 9.7 0.00 0.00 0.00 70 1014.0
20260508151924 20 110 6.4 9.7 0.00 0.00 0.00 73 1014.0
20260508144924 19 110 6.4 9.7 0.00 0.00 0.00 75 1014.0
20260508131926 16 190 17.7 17.7 0.00 0.00 0.00 88 1014.0
20260508124925 16 190 17.7 17.7 0.13 0.00 0.00 88 1014.0
20260508121924 16 145 3.2 4.8 0.00 0.00 0.00 88 1014.0
20260508104924 16 170 8.0 8.0 0.00 0.00 0.00 88 1014.0
20260508094924 16 169 3.2 3.2 0.00 0.00 0.00 88 1014.0
20260508081924 16 100 4.8 4.8 0.00 0.00 0.00 82 1015.0
20260508074924 16 100 4.8 4.8 0.00 0.00 0.00 81 1015.0
20260508071924 16 100 4.8 4.8 0.00 0.00 0.00 81 1015.0
20260508064924 16 129 3.2 3.2 0.00 0.00 0.00 81 1015.0
20260508061924 16 129 3.2 3.2 0.00 0.00 0.00 80 1015.0
20260508054925 16 0 0.0 0.0 0.00 0.00 0.00 79 1016.0